Weather History for Broomfield, CO

Change the Weather History Date:

Sunday, March 23, 2014

  Actual Average Record
Temperature  
Mean Temperature 42 °F -  
Max Temperature 59 °F 53 °F 75 °F (1993)
Min Temperature 24 °F 32 °F 12 °F (1987)
Degree Days  
Heating Degree Days 24    
Moisture  
Dew Point 21 °F    
Average Humidity 72    
Maximum Humidity 100    
Minimum Humidity 11    
Precipitation  
Precipitation 0.00 in - - ()
Sea Level Pressure  
Sea Level Pressure 30.13 in    
Wind  
Wind Speed 5 mph (NNW)    
Max Wind Speed 29 mph    
Max Gust Speed 40 mph    
Visibility 6 miles    
Events      
Averages and records for this station are not official NWS values.
T = Trace of Precipitation, MM = Missing Value Source: NWS Daily Summary

Daily Weather History Graph

Daily Weather History Graph

Search for Another Location

Airport:

Trip Planner

Search our weather history database for the weather conditions in past years. The results will help you decide how hot, cold, wet, or windy it might be!

Date:

Astronomy

Mar. 23, 2014 Rise Set
Actual Time 6:58 AM MDT 7:15 PM MDT
Civil Twilight 6:31 AM MDT 7:42 PM MDT
Nautical Twilight 6:00 AM MDT 8:14 PM MDT
Astronomical Twilight 5:27 AM MDT 8:46 PM MDT
Moon 1:34 AM MDT 11:43 AM MDT
Length of Visible Light 13h 10m
Length of Day
12h 16m
Waning Gibbous, 54% of the Moon is Illuminated
Mar 23
Waning Gibbous
Mar 23
Last Quarter
Mar 30
New
Apr 7
First Quarter
Apr 15
Full

Hourly Weather History & Observations

Time (MDT) Temp. Windchill Dew Point Humidity Pressure Visibility Wind Dir Wind Speed Gust Speed Precip Events Conditions
12:15 AM 26.6 °F 22.6 °F 26.6 °F 100% 30.29 in 4.0 mi East 3.5 mph - N/A   Overcast
12:35 AM 26.6 °F - 26.6 °F 100% 30.28 in 4.0 mi Calm Calm - N/A   Overcast
12:55 AM 26.6 °F - 26.6 °F 100% 30.27 in 4.0 mi Calm Calm - N/A   Overcast
1:15 AM 26.6 °F - 26.6 °F 100% 30.26 in 4.0 mi Calm Calm - N/A   Overcast
1:35 AM 26.6 °F - 26.6 °F 100% 30.25 in 5.0 mi Calm Calm - N/A   Overcast
1:55 AM 26.6 °F - 26.6 °F 100% 30.25 in 5.0 mi Calm Calm - N/A   Overcast
2:15 AM 26.6 °F - 26.6 °F 100% 30.23 in 5.0 mi Calm Calm - N/A   Overcast
2:35 AM 26.6 °F - 26.6 °F 100% 30.22 in 5.0 mi Calm Calm - N/A   Overcast
2:54 AM 26.6 °F - 26.6 °F 100% 30.21 in 7.0 mi Calm Calm - N/A   Overcast
3:15 AM 26.6 °F 22.6 °F 26.6 °F 100% 30.21 in 4.0 mi NNE 3.5 mph - N/A   Overcast
3:33 AM 26.6 °F 20.0 °F 26.6 °F 100% 30.20 in 2.5 mi North 5.8 mph - N/A   Overcast
3:55 AM 26.6 °F 21.2 °F 26.6 °F 100% 30.19 in 1.8 mi North 4.6 mph - N/A   Overcast
4:13 AM 26.6 °F 21.2 °F 26.6 °F 100% 30.18 in 2.0 mi NNE 4.6 mph - N/A   Overcast
4:35 AM 26.6 °F 21.2 °F 26.6 °F 100% 30.18 in 3.0 mi North 4.6 mph - N/A   Overcast
4:55 AM 26.6 °F 20.0 °F 26.6 °F 100% 30.18 in 3.0 mi NNE 5.8 mph - N/A   Overcast
5:14 AM 26.6 °F - 26.6 °F 100% 30.17 in 5.0 mi Calm Calm - N/A   Overcast
5:35 AM 26.6 °F - 26.6 °F 100% 30.17 in 3.0 mi Calm Calm - N/A   Overcast
5:45 AM 24.8 °F - 24.8 °F 100% 30.17 in 4.0 mi Calm Calm - N/A   Overcast
5:54 AM 26.6 °F - 26.6 °F 100% 30.17 in 4.0 mi Calm Calm - N/A   Overcast
6:57 AM 24.8 °F - 24.8 °F 100% 30.15 in 5.0 mi Calm Calm - N/A   Overcast
7:47 AM 24.8 °F - 24.8 °F 100% 30.15 in 5.0 mi Calm Calm - N/A   Overcast
8:52 AM 24.8 °F 19.1 °F 24.8 °F 100% 30.14 in 4.0 mi Variable 4.6 mph - N/A   Overcast
9:50 AM 28.4 °F 21.2 °F 26.6 °F 93% 30.11 in 6.0 mi SSW 6.9 mph - N/A   Mostly Cloudy
10:13 AM 30.2 °F 23.4 °F 28.4 °F 93% 30.11 in 10.0 mi SSW 6.9 mph - N/A   Partly Cloudy
10:49 AM 35.6 °F 32.8 °F 30.2 °F 81% 30.09 in 10.0 mi Variable 3.5 mph - N/A   Partly Cloudy
11:52 AM 44.6 °F 41.4 °F 26.6 °F 49% 30.07 in 10.0 mi SE 5.8 mph - N/A   Partly Cloudy
12:40 PM 51.8 °F - 17.6 °F 26% 30.04 in 10.0 mi North 6.9 mph - N/A   Partly Cloudy
12:47 PM 55.4 °F - 17.6 °F 23% 30.04 in 15.0 mi NNW 8.1 mph - N/A   Partly Cloudy
1:13 PM 55.4 °F - 10.4 °F 17% 30.02 in 15.0 mi WNW 10.4 mph 26.5 mph N/A   Partly Cloudy
1:47 PM 57.2 °F - 8.6 °F 14% 29.99 in 15.0 mi West 20.7 mph 32.2 mph N/A   Partly Cloudy
2:46 PM 59.0 °F - 8.6 °F 14% 29.96 in 25.0 mi West 17.3 mph 23.0 mph N/A   Partly Cloudy
3:47 PM 59.0 °F - 3.2 °F 11% 29.95 in 35.0 mi WNW 28.8 mph 40.3 mph N/A   Partly Cloudy
4:47 PM 57.2 °F - 5.0 °F 12% 29.95 in 35.0 mi West 19.6 mph 26.5 mph N/A   Partly Cloudy
5:47 PM 57.2 °F - 6.8 °F 13% 29.96 in 50.0 mi West 17.3 mph - N/A   Scattered Clouds
6:50 PM 53.6 °F - 5.0 °F 14% 29.96 in 40.0 mi NW 20.7 mph 28.8 mph N/A   Scattered Clouds
7:46 PM 50.0 °F - 10.4 °F 20% 29.99 in 30.0 mi NW 12.7 mph - N/A   Scattered Clouds
8:46 PM 48.2 °F - 12.2 °F 24% 30.01 in 30.0 mi WNW 11.5 mph - N/A   Scattered Clouds
9:47 PM 48.2 °F - 14.0 °F 25% 30.02 in 30.0 mi SW 13.8 mph - N/A   Partly Cloudy
11:15 PM 33.8 °F 22.8 °F 26.6 °F 75% 30.14 in 10.0 mi North 18.4 mph 29.9 mph N/A   Clear
11:35 PM 32.0 °F 19.8 °F 21.2 °F 64% 30.15 in 10.0 mi North 20.7 mph 26.5 mph N/A   Clear
11:54 PM 32.0 °F 20.8 °F 21.2 °F 64% 30.16 in 10.0 mi North 17.3 mph - N/A   Clear